DELTA 1 DEB, 2706

Orbit data source: Space-Track

DELTA 1 DEB, 2706 is space debris in SSO originally from a launch on Thu, 26 Jan 1967 UTC launched from the Air Force Western Test Range (AFWTR). Debris objects in space refer to the collection of defunct objects orbiting the Earth. Examples of debris include non-operational satellites, rocket bodies, and fragments generated from explosions, collisions, or faulty payload assembly.

Loading next visibility...
Identifier
2706, 1967-006C
Orbit
SSO
Country
Flag of USUS
Related business
Manufacturer
Unknown
Mission
Spacecraft
Bus & Motor
Unknown
Mass
Unknown
Launch date (UTC)
1967-01-26 (60 years ago)
Launch vehicle
Unknown
Launch site
Air Force Western Test Range (AFWTR)
Object type
Payload
Rocket body
Debris
Shape & HBR
Unknown shape, 0.1 m
Radar Cross Section
Medium (>0.1 m² and <1 m²)

Expand to show TLE details & history
Last TLE update: 10 hours ago

TLE from 10 hours ago
0 DELTA 1 DEB
1 02706U 67006C   26238.58318226 -.00000028  00000-0  11873-3 0  9994
2 02706 102.1692 281.3440 0035029 282.3582 234.6967 12.60934042741425
Epoch: 2026-08-26T13:59Z
TLE epoch observation values (Epoch: 2026-08-26T13:59:46.947Z)
Latitude
22.73783°
Longitude
-78.27621°
Altitude
1,437.393 km
Speed
7.137 km/s
True Right ascension
07h 06m 00s
True Declination
22° 37' 34"
Sunlit
Object was in daylight at epoch
Visualization orbit readout
Latitude
Unknown
Longitude
Unknown
Altitude
Unknown
Speed
Unknown
Apparent Right ascension
Unknown
Apparent Declination
Unknown
Sunlit
N/A
Visualization observer readout
Local Sidereal Time
14:56:31
Azimuth
Unknown
Elevation
Unknown
Doppler factor
Unknown
Orbital elements
Apogee altitude
1,443.953 km
Perigee altitude
1,389.345 km
Semi-major axis
7,794.786 km
Eccentricity
0.0035
Inclination
102.1692°
RAAN
281.344°
Arg. of periapsis
282.3582°
True anomaly
234.36994°
Mean anomaly
234.6967°
Eccentric anomaly
234.53324°
Mean motion
3.15382 °/min
Orbital period
114.15 mins
BSTAR
0.00011873
Loading maneuver chart data...
Computing Atmospheric mass density...
Loading historical data...
Loading historical data...
Loading historical data...
Loading historical data...
Loading historical data...
Loading historical data...
Loading historical data...
Other satellites on launch #6 in the year 1967 (1967-01-26 UTC)

Documentation

Showing up to 5 results
|